Date,TemperatureHighF,TemperatureAvgF,TemperatureLowF,DewpointHighF,DewpointAvgF,DewpointLowF,HumidityHigh,HumidityAvg,HumidityLow,PressureMaxIn,PressureMinIn,WindSpeedMaxMPH,WindSpeedAvgMPH,GustSpeedMaxMPH,PrecipitationSumIn
2013-1-1,46.0,30.4,21.7,25.0,16.5,8.4,95,61,24,29.93,29.86,8,2,8,0.02
2013-1-2,51.6,36.4,25.5,12.2,6.9,-2.1,50,31,11,29.92,29.83,8,3,9,0.00
2013-1-3,52.5,36.2,25.3,16.6,4.9,-8.0,68,31,10,29.97,29.84,10,3,11,0.00
2013-1-4,59.7,35.1,21.7,20.5,10.9,-8.6,78,48,10,30.00,29.93,6,1,6,0.00
2013-1-5,64.8,40.1,26.1,26.6,12.3,-3.0,78,40,10,30.02,29.89,14,2,14,0.00
2013-1-6,43.3,33.1,30.0,33.0,27.9,10.9,99,84,32,29.89,29.73,22,6,22,0.01
2013-1-7,49.5,35.3,24.6,31.7,23.2,7.0,99,67,25,29.87,29.71,9,2,9,0.20
2013-1-8,63.5,45.2,32.9,32.5,26.2,8.2,93,52,20,30.00,29.84,9,3,9,0.00
2013-1-9,63.0,44.4,31.6,40.3,29.1,20.8,97,61,20,30.00,29.73,17,5,17,0.00
2013-1-10,45.1,30.1,20.7,35.4,28.0,17.7,99,93,45,29.74,29.60,24,5,24,0.22
2013-1-11,42.8,26.6,17.8,22.0,16.4,9.9,88,68,28,29.79,29.71,7,1,7,0.13
2013-1-12,42.3,25.5,15.3,16.5,10.1,-4.3,90,58,14,29.80,29.71,8,1,8,0.02
2013-1-13,41.2,25.2,15.4,20.1,9.1,-7.8,94,57,14,29.80,29.72,10,2,10,0.01
2013-1-14,35.8,24.2,14.7,2.0,-6.3,-19.4,52,28,10,29.98,29.79,11,5,11,0.00
2013-1-15,48.7,37.4,23.2,20.6,15.1,-0.6,55,40,28,30.11,29.97,13,5,13,0.00
2013-1-16,55.9,43.4,34.5,21.3,16.0,8.8,52,34,16,30.11,30.01,10,4,10,0.00
2013-1-17,57.9,42.1,27.9,22.1,8.6,-3.8,75,30,10,30.06,29.98,8,2,8,0.00
2013-1-18,59.2,38.0,25.7,25.9,15.1,-2.2,80,50,10,30.01,29.97,6,1,6,0.00
2013-1-19,59.0,36.6,25.3,25.7,15.6,-3.6,82,54,10,30.05,29.98,7,1,7,0.00
2013-1-20,60.3,39.6,25.9,27.2,12.0,-4.7,80,43,10,30.02,29.93,7,1,7,0.00
2013-1-21,64.2,44.3,29.1,20.8,4.3,-8.6,68,24,10,29.99,29.93,8,2,8,0.00
2013-1-22,70.9,42.6,26.8,26.1,16.7,-0.9,69,43,10,29.98,29.93,9,1,9,0.00
2013-1-23,66.0,54.0,38.7,35.6,25.9,12.6,74,35,17,29.99,29.91,19,6,19,0.00
2013-1-24,58.1,46.2,41.5,50.6,42.9,30.2,99,89,60,29.99,29.88,18,4,18,0.45
2013-1-25,51.1,45.4,41.5,50.2,44.8,41.3,99,98,91,29.98,29.80,7,1,7,0.61
2013-1-26,52.9,45.1,42.8,49.2,44.5,42.5,99,98,79,29.80,29.72,13,2,13,0.04
2013-1-27,43.5,37.2,26.6,42.9,36.8,26.4,99,99,92,29.77,29.67,19,6,19,0.02
2013-1-28,41.2,28.6,23.0,27.4,23.5,18.9,99,82,49,29.86,29.71,7,1,7,0.00
2013-1-29,60.8,38.5,21.0,29.9,25.2,19.8,98,63,24,29.99,29.85,8,2,8,0.27
2013-1-30,62.6,46.4,32.5,31.6,26.7,19.8,94,50,23,30.08,29.98,10,2,10,0.00
2013-1-31,64.2,46.8,32.0,33.1,28.7,22.7,96,53,22,30.05,29.97,8,2,8,0.00
2013-2-1,68.2,45.0,30.6,38.9,30.7,15.4,99,67,14,30.05,29.97,5,1,5,0.00
2013-2-2,63.3,46.5,34.9,40.8,34.8,26.3,94,68,26,30.07,29.99,4,0,4,0.01
2013-2-3,59.9,46.0,34.0,44.6,37.1,31.8,99,74,37,30.00,29.87,8,1,8,0.06
2013-2-4,65.3,44.5,31.5,40.2,27.7,10.7,99,61,16,29.93,29.85,7,1,7,0.00
2013-2-5,64.0,46.5,30.7,37.9,28.6,7.4,96,56,12,29.88,29.78,11,2,11,0.00
2013-2-6,61.2,44.3,29.5,32.8,24.8,13.6,94,52,16,29.89,29.75,10,2,10,0.00
2013-2-7,59.4,42.1,28.9,41.7,25.4,5.5,99,61,12,29.89,29.68,26,6,26,0.05
2013-2-8,32.7,27.9,21.9,32.3,27.7,21.7,99,99,96,29.68,29.54,21,4,21,0.00
2013-2-9,45.7,29.7,20.8,33.7,25.4,20.6,99,86,39,29.78,29.58,11,2,11,0.18
2013-2-10,49.3,31.5,22.3,30.2,26.0,19.1,99,82,38,29.78,29.71,9,2,9,0.00
2013-2-11,45.0,33.5,25.2,28.3,9.9,-10.5,98,45,10,29.92,29.74,12,4,12,0.02
2013-2-12,52.2,38.6,24.4,15.4,6.6,-3.3,65,28,11,30.01,29.91,10,3,10,0.02
2013-2-13,58.6,42.8,31.6,27.8,11.9,-1.4,83,34,10,30.00,29.93,9,2,9,0.00
2013-2-14,63.3,45.7,30.4,28.4,20.1,10.3,89,43,13,30.02,29.92,16,2,16,0.00
2013-2-15,65.1,47.2,29.7,26.1,14.5,-0.4,78,33,10,30.09,29.97,11,3,11,0.00
2013-2-16,65.7,44.1,27.5,30.1,17.0,-1.6,81,46,10,30.08,29.84,8,1,8,0.00
2013-2-17,62.1,43.5,30.4,32.4,20.3,-0.5,87,49,10,29.84,29.74,11,2,11,0.00
2013-2-18,56.7,42.3,28.9,35.2,23.4,1.2,88,55,11,29.80,29.67,18,5,18,0.00
2013-2-19,41.2,32.1,27.7,34.5,31.0,18.6,99,96,43,29.68,29.39,22,7,22,0.00
2013-2-20,40.8,28.0,19.8,39.2,27.5,19.6,99,98,86,29.68,29.36,9,1,9,0.02
2013-2-21,46.4,33.1,24.4,33.4,23.4,10.2,99,70,37,29.81,29.66,9,2,9,0.21
2013-2-22,59.0,37.1,23.4,29.2,19.5,-1.3,94,60,10,29.91,29.80,6,1,6,0.05
2013-2-23,66.0,43.4,27.9,30.1,23.5,2.5,93,52,10,29.88,29.69,14,3,14,0.00
2013-2-24,46.6,35.3,27.5,10.9,-2.4,-14.6,44,21,10,29.93,29.75,16,6,16,0.00
2013-2-25,58.8,40.2,25.2,24.7,11.5,-16.1,77,39,10,29.93,29.83,9,2,9,0.00
2013-2-26,58.3,42.0,28.4,23.0,8.5,-7.5,79,29,10,29.93,29.78,11,3,11,0.00
2013-2-27,56.8,42.5,27.9,22.8,-1.4,-13.4,62,19,10,30.08,29.92,11,3,11,0.00
2013-2-28,63.5,47.5,28.8,23.3,3.3,-14.1,61,20,10,30.15,30.04,11,2,11,0.00
2013-3-1,70.2,51.8,35.2,30.2,11.5,-6.6,77,26,10,30.15,30.06,8,2,8,0.00
2013-3-2,70.0,51.1,32.7,34.7,18.8,4.3,82,38,10,30.12,29.96,13,3,13,0.00
2013-3-3,61.2,51.0,40.1,37.1,21.2,2.7,77,36,10,29.96,29.79,14,5,14,0.00
2013-3-4,62.6,46.6,34.5,41.4,34.2,22.3,96,66,25,29.90,29.79,10,2,10,0.00
2013-3-5,59.0,47.4,37.0,44.8,37.0,29.6,99,71,34,29.89,29.77,24,9,24,0.08
2013-3-6,54.0,40.8,34.0,43.1,37.4,30.9,99,89,42,29.83,29.73,19,6,19,0.07
2013-3-7,39.0,35.2,32.4,38.8,34.9,32.1,99,99,97,29.74,29.58,18,6,18,0.51
2013-3-8,36.0,31.9,28.8,33.4,31.1,28.2,99,97,82,29.70,29.49,14,1,14,0.04
2013-3-9,50.4,39.6,30.4,40.9,30.7,26.8,99,73,42,29.95,29.70,8,2,8,0.22
2013-3-10,61.2,46.8,36.0,27.7,12.1,-2.3,71,28,10,30.04,29.95,12,4,12,0.00
2013-3-11,70.3,47.2,29.3,33.6,19.2,1.6,83,45,10,30.01,29.92,8,1,8,0.00
2013-3-12,76.6,50.8,32.7,35.9,23.5,6.5,84,49,10,30.02,29.92,8,1,8,0.00
2013-3-13,79.5,55.2,35.6,39.7,26.0,7.7,85,46,10,30.04,29.99,10,1,10,0.00
2013-3-14,79.9,58.2,39.6,41.2,29.8,13.3,79,46,10,30.04,29.98,8,1,8,0.00
2013-3-15,76.3,58.1,43.0,40.0,25.5,-2.2,79,35,10,29.99,29.85,12,2,12,0.00
2013-3-16,75.9,57.3,41.5,34.5,19.0,-2.4,62,28,10,29.86,29.78,7,2,7,0.00
2013-3-17,72.9,55.2,41.0,43.2,23.0,6.5,79,36,10,29.86,29.79,9,2,9,0.00
2013-3-18,68.0,52.3,36.1,38.9,24.4,5.4,90,43,10,29.88,29.80,8,2,8,0.00
2013-3-19,69.6,55.5,42.4,37.2,25.7,10.1,73,35,10,29.94,29.84,14,2,14,0.00
2013-3-20,64.4,53.1,43.0,44.5,37.2,28.1,82,56,30,29.93,29.82,13,2,13,0.00
2013-3-21,66.7,53.0,42.6,43.3,34.6,12.1,88,55,12,29.82,29.68,9,3,9,0.00
2013-3-22,68.4,50.1,37.9,41.0,18.7,-6.5,87,36,10,29.78,29.65,8,2,8,0.00
2013-3-23,65.5,49.4,32.9,33.6,19.5,4.2,77,36,10,29.86,29.75,8,2,8,0.00
2013-3-24,68.9,50.2,35.1,35.7,20.8,2.1,86,45,10,29.86,29.80,8,1,8,0.00
2013-3-25,69.4,52.5,37.0,40.9,26.6,7.0,84,47,10,29.85,29.79,15,3,15,0.00
2013-3-26,65.8,54.4,46.0,42.5,26.8,4.8,81,39,10,29.82,29.75,13,4,13,0.00
2013-3-27,62.6,50.3,38.5,45.2,36.2,28.4,94,61,28,29.85,29.74,14,4,14,0.00
2013-3-28,64.4,51.6,39.0,46.9,37.8,26.6,95,64,26,29.92,29.82,14,3,14,0.00
2013-3-29,68.7,54.4,37.9,48.1,36.6,21.2,98,58,17,29.96,29.90,14,3,14,0.00
2013-3-30,68.5,55.3,43.9,43.3,34.3,7.8,73,48,10,29.95,29.88,15,5,15,0.00
2013-3-31,57.0,48.5,43.5,46.2,38.6,19.8,98,71,33,29.91,29.83,17,6,17,0.00
2013-4-1,55.4,44.5,38.1,42.5,39.2,35.4,99,83,52,29.91,29.83,14,4,14,0.00
2013-4-2,67.8,50.0,37.8,41.8,32.3,14.9,88,59,14,29.91,29.84,8,2,8,0.00
2013-4-3,72.1,54.9,37.4,41.6,31.5,11.6,93,51,10,29.95,29.89,12,2,12,0.00
2013-4-4,68.7,56.8,47.3,48.0,33.3,5.2,92,46,10,29.94,29.87,13,4,13,0.00
2013-4-5,67.6,52.3,41.5,47.1,41.7,27.3,99,73,23,29.89,29.82,11,3,11,0.00
2013-4-6,70.0,53.4,43.0,47.2,35.5,19.3,98,57,17,29.89,29.81,8,2,8,0.00
2013-4-7,72.5,53.8,43.3,48.3,35.5,12.1,92,54,10,29.84,29.67,9,3,9,0.00
2013-4-8,50.5,42.4,36.5,45.6,35.9,27.4,99,80,42,29.67,29.47,17,4,17,0.12
2013-4-9,59.5,45.0,31.5,32.5,14.9,-7.0,82,39,10,29.85,29.61,13,3,13,0.00
2013-4-10,68.7,52.5,38.5,30.4,11.0,-3.7,63,23,10,29.93,29.83,13,3,13,0.00
2013-4-11,70.7,53.0,39.9,42.5,28.3,7.5,86,46,10,29.89,29.67,12,2,12,0.00
2013-4-12,73.9,57.1,40.6,46.2,33.8,11.4,96,51,10,29.77,29.68,9,2,9,0.00
2013-4-13,68.4,56.9,49.1,47.1,34.6,14.4,91,47,13,29.77,29.67,20,6,20,0.00
2013-4-14,73.4,55.7,41.5,43.0,32.9,16.8,99,50,13,29.68,29.61,10,3,10,0.00
2013-4-15,49.1,42.2,38.1,42.4,39.9,33.6,99,92,62,29.67,29.58,21,7,21,0.08
2013-4-16,50.2,39.0,30.7,42.7,29.1,13.7,99,72,24,29.74,29.57,24,5,24,0.14
2013-4-17,57.4,43.7,30.0,27.0,6.4,-9.3,74,28,10,29.93,29.73,11,3,11,0.00
2013-4-18,61.5,48.3,36.5,5.1,-1.4,-9.6,25,13,10,30.01,29.93,11,4,11,0.00
2013-4-19,72.9,54.6,37.6,31.6,7.7,-11.2,60,18,10,30.01,29.88,8,2,8,0.00
2013-4-20,78.8,59.4,41.4,37.6,23.0,10.8,65,31,10,29.91,29.85,10,2,10,0.04
2013-4-21,76.5,60.5,43.2,43.4,25.1,10.4,72,35,10,29.93,29.86,14,3,14,0.00
2013-4-22,76.3,61.7,47.1,42.6,31.9,9.4,71,36,10,29.89,29.76,11,3,11,0.00
2013-4-23,74.1,59.2,44.4,41.8,27.7,7.8,78,40,10,29.84,29.75,8,2,8,0.00
2013-4-24,71.8,53.3,43.2,51.4,39.7,12.0,99,68,11,29.81,29.71,16,3,16,0.00
2013-4-25,69.8,50.9,40.1,45.7,41.8,25.7,99,75,19,29.92,29.73,14,3,14,0.00
2013-4-26,74.7,56.8,39.7,41.9,31.7,11.2,92,50,10,30.03,29.91,11,2,11,0.00
2013-4-27,82.8,61.5,43.3,43.4,29.7,13.8,76,40,10,30.04,29.94,8,2,8,0.00
2013-4-28,81.7,63.3,45.5,44.6,29.7,13.7,76,38,10,29.96,29.83,11,2,11,0.00
2013-4-29,80.1,64.3,46.8,45.2,29.4,15.6,71,35,10,29.85,29.73,12,3,12,0.00
2013-4-30,73.6,62.0,53.8,48.3,35.2,18.6,78,41,14,29.74,29.69,14,4,14,0.00
2013-5-1,76.5,61.9,46.0,44.4,19.5,0.7,85,29,10,30.03,29.73,15,3,15,0.00
2013-5-2,72.9,60.7,45.0,24.4,5.2,-3.8,44,11,10,30.09,30.00,9,3,9,0.00
2013-5-3,81.9,60.3,39.2,36.1,16.3,0.5,66,25,10,30.01,29.79,9,2,9,0.00
2013-5-4,70.2,57.3,44.6,44.7,22.2,-1.3,82,31,10,29.79,29.63,15,4,15,0.00
2013-5-5,54.0,46.8,40.6,44.4,34.6,-2.0,99,71,11,29.75,29.63,27,9,27,0.15
2013-5-6,44.8,42.3,40.1,44.5,42.0,39.8,99,99,99,29.79,29.68,21,8,21,0.71
2013-5-7,52.9,43.8,38.8,43.3,40.8,38.4,99,90,66,29.84,29.75,17,4,17,0.04
2013-5-8,60.6,47.2,39.0,47.6,42.3,36.0,99,84,50,29.89,29.82,11,3,12,0.00
2013-5-9,68.2,52.3,40.5,50.8,43.9,30.3,99,77,25,29.93,29.85,11,2,11,0.00
2013-5-10,75.0,59.2,45.5,48.2,40.9,15.9,94,59,11,30.02,29.91,15,2,15,0.00
2013-5-11,80.6,63.0,46.0,53.5,38.4,15.9,98,54,10,30.05,29.98,15,2,15,0.00
2013-5-12,85.5,67.1,48.4,54.1,35.1,17.1,89,44,10,30.07,29.95,8,1,8,0.00
2013-5-13,84.2,68.1,50.2,54.3,34.3,16.3,85,40,10,30.01,29.91,12,2,12,0.00
2013-5-14,73.0,64.9,51.3,40.5,26.6,9.6,54,26,10,29.94,29.83,21,5,21,0.01
2013-5-15,75.4,59.4,46.2,48.6,40.4,22.5,74,53,14,29.90,29.84,12,2,12,0.00
2013-5-16,69.3,58.8,50.9,48.8,42.7,24.9,85,58,22,29.84,29.77,12,2,12,0.00
2013-5-17,59.0,52.9,48.4,49.1,46.9,42.5,98,81,64,29.84,29.74,13,4,13,0.00
2013-5-18,70.9,56.4,42.8,50.2,40.6,20.7,99,63,15,29.88,29.81,9,2,9,0.00
2013-5-19,78.1,61.5,49.5,45.6,25.1,11.2,86,29,10,29.88,29.82,6,2,6,0.00
2013-5-20,78.4,60.5,44.1,45.7,27.1,6.7,84,40,10,29.92,29.86,8,1,8,0.00
2013-5-21,73.0,61.1,45.9,48.2,35.7,19.2,70,43,13,29.89,29.75,13,3,13,0.00
2013-5-22,65.3,58.1,46.6,51.3,39.6,26.5,99,54,30,29.76,29.65,16,5,16,0.00
2013-5-23,61.5,53.1,45.5,47.9,38.4,10.7,99,61,18,29.78,29.64,16,4,16,0.00
2013-5-24,64.4,53.7,40.8,47.8,34.4,4.5,93,53,10,29.83,29.74,14,3,14,0.00
2013-5-25,63.7,55.1,47.8,46.7,27.2,-5.8,93,41,10,29.84,29.77,14,4,14,0.00
2013-5-26,63.9,54.7,41.9,49.0,39.6,26.5,92,59,31,29.87,29.80,12,3,12,0.00
2013-5-27,73.9,59.2,45.7,52.1,39.6,13.4,87,54,10,29.84,29.75,8,2,8,0.00
2013-5-28,75.4,60.6,50.0,49.4,38.9,23.3,94,50,16,29.76,29.68,10,2,10,0.00
2013-5-29,79.2,62.6,46.6,53.0,38.4,15.1,85,46,10,29.77,29.70,10,2,10,0.00
2013-5-30,80.6,64.9,50.7,51.6,41.2,14.9,81,47,10,29.82,29.73,8,2,8,0.00
2013-5-31,85.3,68.1,50.4,51.9,37.1,14.9,89,41,10,29.87,29.79,7,2,7,0.00
2013-6-1,86.2,69.5,52.2,54.0,36.1,18.8,75,39,10,29.87,29.78,8,1,8,0.11
2013-6-2,76.3,66.0,54.5,55.5,44.6,19.5,79,51,17,29.81,29.70,14,4,14,0.00
2013-6-3,72.5,66.3,57.7,49.7,32.5,7.1,57,31,10,29.78,29.70,17,4,17,0.00
2013-6-4,78.1,66.9,55.6,49.8,26.2,4.9,64,24,10,29.86,29.76,11,3,11,0.00
2013-6-5,86.5,67.1,50.2,53.9,34.3,8.9,62,35,10,29.89,29.83,8,1,8,0.00
2013-6-6,88.0,69.8,53.1,55.3,37.2,14.2,62,35,10,29.87,29.81,14,2,14,0.00
2013-6-7,92.5,71.6,53.8,56.7,34.5,13.8,68,34,10,29.84,29.77,5,1,7,0.00
2013-6-8,90.0,73.2,57.0,58.4,35.9,13.4,67,33,10,29.83,29.77,13,3,13,0.00
2013-6-9,79.3,70.5,62.6,50.1,26.7,6.1,56,22,10,29.86,29.79,12,4,12,0.00
2013-6-10,68.7,61.2,52.0,49.3,33.9,13.0,74,39,15,29.86,29.77,17,6,17,0.00
2013-6-11,81.1,67.4,50.2,56.3,34.7,14.9,78,39,10,29.92,29.84,8,2,8,0.00
2013-6-12,74.8,67.5,60.1,53.8,42.8,22.9,68,42,18,29.92,29.87,12,3,12,0.00
2013-6-13,78.1,66.3,51.4,48.7,33.0,4.6,68,33,10,29.92,29.85,10,2,10,0.00
2013-6-14,80.6,67.6,56.1,49.4,23.5,1.9,55,22,10,29.85,29.78,14,3,14,0.00
2013-6-15,73.6,65.3,55.4,44.3,20.2,2.0,46,20,10,29.87,29.77,11,4,11,0.00
2013-6-16,80.2,63.9,46.0,45.9,32.0,9.2,64,35,10,29.93,29.85,8,1,8,0.00
2013-6-17,82.6,64.9,48.0,50.2,38.7,14.9,78,46,10,29.92,29.85,11,1,11,0.00
2013-6-18,75.4,63.6,49.1,50.9,40.2,25.5,85,47,18,29.85,29.76,14,3,14,0.00
2013-6-19,80.1,63.3,48.7,50.8,38.1,11.4,83,45,10,29.80,29.73,8,2,8,0.00
2013-6-20,77.7,62.9,46.4,49.6,39.1,9.6,91,49,10,29.80,29.72,11,2,11,0.00
2013-6-21,73.8,64.0,50.5,48.1,40.8,25.9,78,45,20,29.83,29.76,8,2,8,0.00
2013-6-22,79.9,65.0,52.0,51.4,41.3,15.2,73,47,10,29.83,29.77,8,2,8,0.00
2013-6-23,69.8,62.3,52.0,50.2,46.1,36.6,79,57,32,29.79,29.71,11,3,11,0.00
2013-6-24,69.8,60.9,55.8,53.7,46.5,35.4,89,61,35,29.83,29.70,13,4,13,0.00
2013-6-25,81.9,67.9,56.7,57.5,51.5,43.7,86,58,26,29.90,29.81,8,2,8,0.00
2013-6-26,82.8,71.6,58.5,56.5,53.2,45.1,92,55,28,29.98,29.89,9,2,9,0.00
2013-6-27,86.2,75.1,65.8,54.9,49.1,37.5,60,41,20,30.03,29.96,11,2,11,0.00
2013-6-28,91.6,75.5,59.2,63.0,46.7,16.2,77,42,11,30.01,29.92,11,1,11,0.00
2013-6-29,95.2,76.8,60.8,60.2,41.7,24.2,61,33,10,29.95,29.86,8,1,8,0.00
2013-6-30,95.7,77.6,61.7,62.6,44.5,25.3,72,40,10,29.90,29.82,8,1,8,0.00
2013-7-1,87.6,75.8,64.9,58.7,47.2,32.3,62,39,21,29.93,29.85,12,2,12,0.00
2013-7-2,86.5,76.8,66.4,52.3,40.3,31.5,56,28,15,30.00,29.91,11,2,11,0.00
2013-7-3,91.6,75.1,63.5,58.6,49.9,35.5,68,44,18,29.94,29.82,10,1,10,0.00
2013-7-4,89.1,75.3,63.0,65.3,49.7,37.1,72,44,20,29.85,29.78,13,2,13,0.00
2013-7-5,84.4,73.7,64.4,56.9,49.9,40.1,72,45,26,29.83,29.77,10,2,10,0.00
2013-7-6,84.6,73.4,65.3,53.5,44.4,27.7,65,37,18,29.82,29.77,9,2,9,0.00
2013-7-7,88.3,73.6,59.4,55.4,42.3,21.1,61,37,10,29.88,29.78,10,2,10,0.00
2013-7-8,88.9,70.9,57.2,57.7,38.8,16.0,75,41,10,29.99,29.87,11,1,11,0.00
2013-7-9,89.8,73.8,59.4,56.6,38.6,19.6,61,34,10,30.02,29.96,8,1,8,0.00
2013-7-10,89.4,74.2,65.7,58.3,49.4,23.9,70,46,10,29.99,29.89,7,1,7,0.00
2013-7-11,72.9,68.5,64.9,61.6,51.4,39.6,83,55,32,29.92,29.86,5,1,5,0.00
2013-7-12,79.9,70.3,62.8,56.7,50.5,35.1,75,51,30,29.91,29.85,11,2,11,0.00
2013-7-13,86.5,70.4,56.8,54.3,40.7,18.9,60,39,10,29.94,29.87,8,1,8,0.00
2013-7-14,87.3,72.0,60.8,55.4,46.1,27.7,68,43,18,29.94,29.85,7,1,7,0.00
2013-7-15,82.8,70.0,60.6,54.6,45.0,28.1,72,44,17,29.88,29.82,11,3,13,0.00
2013-7-16,80.1,70.3,63.3,43.7,23.0,5.9,44,18,10,29.93,29.81,14,5,14,0.00
2013-7-17,84.2,70.4,52.3,43.2,22.2,4.9,66,20,10,29.99,29.92,10,2,10,0.00
2013-7-18,88.9,72.7,55.6,50.9,32.6,15.4,57,29,10,29.97,29.88,8,1,8,0.00
2013-7-19,88.9,73.5,60.3,53.4,41.1,22.2,55,35,10,29.91,29.83,10,2,10,0.00
2013-7-20,82.6,73.1,64.9,66.2,56.8,40.6,91,58,30,29.88,29.79,11,2,11,0.01
2013-7-21,75.7,68.6,63.1,63.9,61.7,57.8,98,79,56,29.90,29.79,20,1,20,0.02
2013-7-22,78.1,69.4,62.4,63.9,61.6,59.8,98,77,57,29.94,29.86,9,2,9,0.00
2013-7-23,80.1,70.3,59.5,62.2,58.1,50.8,99,69,39,29.97,29.90,8,2,11,0.00
2013-7-24,84.9,74.8,59.9,63.6,54.9,43.9,92,53,31,29.94,29.87,10,2,10,0.00
2013-7-25,88.0,74.0,60.6,60.4,49.3,32.3,79,46,15,30.00,29.90,11,2,11,0.00
2013-7-26,81.0,72.4,64.9,62.9,55.0,41.4,78,56,29,30.05,29.97,11,1,11,0.01
2013-7-27,84.0,72.4,62.4,63.3,55.0,47.1,89,58,32,29.99,29.86,11,2,11,0.00
2013-7-28,78.6,71.4,64.2,51.4,40.5,18.3,54,34,16,29.88,29.81,14,4,14,0.00
2013-7-29,79.2,70.1,61.0,48.8,32.0,10.4,53,27,10,29.96,29.84,12,3,12,0.00
2013-7-30,81.3,73.3,61.9,54.1,46.8,36.4,62,41,21,30.02,29.96,16,4,16,0.00
2013-7-31,79.2,71.4,61.2,53.3,36.1,16.3,71,31,10,30.01,29.92,13,4,13,0.00
2013-8-1,79.3,70.2,61.5,43.4,22.3,6.5,45,19,10,29.93,29.86,13,3,16,0.00
2013-8-2,77.0,68.0,59.0,51.3,38.4,15.4,67,37,11,29.89,29.84,16,3,16,0.00
2013-8-3,79.7,68.7,54.7,49.2,32.2,8.4,64,32,10,29.93,29.86,14,3,14,0.00
2013-8-4,81.7,70.9,59.7,49.4,30.0,13.3,59,26,10,29.95,29.89,11,3,11,0.00
2013-8-5,82.2,71.1,55.0,45.6,28.0,4.8,69,25,10,29.96,29.89,11,3,11,0.00
2013-8-6,79.3,70.7,62.1,44.2,23.2,7.0,47,20,10,29.97,29.89,11,4,11,0.00
2013-8-7,78.1,68.9,59.5,44.2,20.6,6.3,50,18,10,29.98,29.91,12,4,12,0.00
2013-8-8,75.0,69.2,63.1,40.2,24.5,10.7,42,22,10,29.93,29.85,12,4,12,0.00
2013-8-9,74.8,65.1,57.9,50.0,31.5,5.9,71,33,10,29.88,29.81,12,4,12,0.00
2013-8-10,75.6,64.0,50.0,48.9,35.0,9.6,80,40,10,29.93,29.85,12,3,12,0.00
2013-8-11,80.1,65.7,50.2,49.6,38.3,15.1,77,44,10,29.92,29.86,9,2,12,0.00
2013-8-12,83.3,70.1,51.8,49.4,34.8,17.0,69,35,10,29.93,29.87,10,2,10,0.00
2013-8-13,85.5,69.8,53.8,51.5,33.2,14.8,67,34,10,29.95,29.89,8,2,8,0.00
2013-8-14,89.8,74.6,55.0,51.9,32.2,18.7,64,28,10,29.95,29.87,8,2,8,0.00
2013-8-15,87.1,77.5,61.2,45.2,32.3,20.6,53,22,10,29.96,29.90,11,3,11,0.00
2013-8-16,84.6,76.0,64.9,59.8,48.4,37.1,74,40,21,29.97,29.91,10,3,10,0.00
2013-8-17,86.4,76.5,64.4,55.0,45.4,31.9,68,36,15,29.96,29.85,11,3,11,0.00
2013-8-18,88.5,79.4,68.2,54.8,47.7,39.1,54,34,22,29.92,29.85,12,3,12,0.00
2013-8-19,85.3,73.8,60.8,68.1,57.5,49.0,99,60,29,29.93,29.87,12,2,12,0.07
2013-8-20,83.1,72.7,63.0,59.9,46.9,20.0,85,47,10,29.91,29.87,12,3,12,0.00
2013-8-21,86.4,76.5,62.8,49.3,36.0,18.0,54,26,10,29.94,29.88,11,3,11,0.00
2013-8-22,84.7,75.3,60.4,57.1,39.6,28.9,63,31,14,29.94,29.86,9,3,9,0.07
2013-8-23,84.0,73.2,58.5,55.3,34.3,19.4,68,28,10,29.89,29.79,10,3,10,0.00
2013-8-24,82.0,73.5,65.7,54.0,33.0,16.9,64,26,10,29.86,29.79,14,6,14,0.00
2013-8-25,81.9,70.9,62.4,56.8,50.2,29.6,75,51,22,29.93,29.85,15,4,15,0.00
2013-8-26,71.6,66.1,60.1,61.9,58.7,54.6,89,77,64,29.93,29.86,5,1,5,0.00
2013-8-27,81.1,69.3,58.3,62.9,58.8,55.1,99,72,42,29.89,29.82,11,2,11,0.00
2013-8-28,82.9,71.6,59.7,63.7,56.8,52.1,96,63,37,29.93,29.83,10,2,10,0.00
2013-8-29,84.6,73.5,63.7,63.4,57.8,51.3,82,60,33,30.00,29.91,8,2,8,0.00
2013-8-30,80.4,70.8,63.3,67.1,64.4,60.5,99,82,54,30.01,29.94,9,2,9,0.05
2013-8-31,78.6,70.1,64.8,67.1,64.2,62.5,99,82,62,29.98,29.89,11,2,11,0.00
2013-9-1,81.5,71.2,64.8,63.7,59.2,51.1,95,68,38,29.93,29.87,11,3,11,0.00
2013-9-2,83.7,72.2,59.2,60.3,54.9,46.4,91,58,29,29.93,29.85,8,2,8,0.00
2013-9-3,83.1,73.7,63.7,60.4,55.9,50.1,84,56,33,29.95,29.88,11,2,12,0.00
2013-9-4,86.2,75.2,63.5,61.0,56.2,50.1,88,54,30,29.97,29.91,11,2,11,0.00
2013-9-5,86.7,76.1,64.4,62.0,53.8,46.1,87,49,25,29.96,29.89,14,2,14,0.00
2013-9-6,85.8,74.1,62.4,62.6,50.6,40.2,86,48,21,29.95,29.87,8,2,10,0.00
2013-9-7,83.8,72.1,63.1,59.0,52.3,44.7,73,51,28,29.93,29.86,11,2,11,0.00
2013-9-8,84.4,71.0,57.9,57.3,47.0,20.4,88,49,10,29.88,29.79,17,1,17,0.00
2013-9-9,82.6,69.0,59.0,61.0,50.9,38.1,94,58,21,29.85,29.74,10,2,17,0.00
2013-9-10,76.1,67.7,62.1,53.7,46.7,39.1,73,49,28,29.88,29.77,12,4,12,0.00
2013-9-11,77.7,68.6,60.8,49.0,40.0,24.8,59,37,15,29.93,29.87,11,2,11,0.02
2013-9-12,81.1,70.6,59.4,47.2,33.3,19.4,62,27,11,29.91,29.84,10,2,10,0.00
2013-9-13,86.0,68.4,53.8,47.6,35.5,17.3,68,38,10,29.86,29.74,7,1,7,0.00
2013-9-14,89.6,70.8,56.8,54.3,40.6,21.8,76,41,10,29.79,29.73,10,1,10,0.00
2013-9-15,87.8,72.6,58.1,54.9,40.1,21.8,71,38,10,29.83,29.76,15,2,15,0.00
2013-9-16,84.9,73.6,57.7,53.9,35.8,20.2,74,31,10,29.88,29.80,12,3,12,0.00
2013-9-17,76.5,68.6,61.3,47.2,29.7,11.9,59,26,10,29.81,29.70,14,6,14,0.00
2013-9-18,78.6,65.4,54.3,41.9,25.5,6.1,61,27,10,29.78,29.69,6,2,6,0.00
2013-9-19,84.9,66.1,50.0,47.0,34.4,15.9,82,41,10,29.81,29.76,8,1,8,0.00
2013-9-20,80.1,64.6,53.2,53.8,39.0,17.0,74,44,10,29.82,29.77,15,3,15,0.00
2013-9-21,70.2,60.3,48.6,52.7,33.4,1.7,97,45,10,29.79,29.69,15,4,15,0.00
2013-9-22,66.6,54.4,42.1,46.6,33.0,12.7,95,53,13,29.81,29.67,9,2,9,0.00
2013-9-23,79.0,62.0,47.3,43.0,30.7,12.1,78,39,10,29.90,29.78,6,1,6,0.00
2013-9-24,79.0,63.2,50.4,48.0,33.9,16.7,77,40,10,29.91,29.79,11,3,11,0.00
2013-9-25,66.6,58.1,45.7,49.4,35.9,21.3,99,48,21,29.80,29.58,22,6,22,0.00
2013-9-26,59.2,48.1,42.4,46.0,33.9,3.1,99,67,11,29.78,29.58,10,3,10,0.00
2013-9-27,64.9,52.6,40.3,30.2,19.0,5.3,65,32,10,29.93,29.77,8,2,8,0.00
2013-9-28,76.5,57.0,40.6,36.2,21.6,6.1,72,33,10,29.99,29.91,4,1,4,0.00
2013-9-29,79.3,60.5,44.4,38.3,26.4,7.7,72,37,10,29.99,29.93,8,1,8,0.00
2013-9-30,84.0,63.2,45.9,40.5,28.4,11.9,70,34,10,29.95,29.83,7,1,7,0.00
2013-10-1,77.9,65.4,58.1,44.9,29.4,12.2,55,29,10,29.87,29.82,10,3,10,0.00
2013-10-2,73.0,61.5,54.9,48.1,37.7,12.2,75,45,11,29.85,29.79,10,3,10,0.00
2013-10-3,74.7,57.6,43.9,48.4,35.0,6.1,85,49,10,29.82,29.72,8,2,8,0.00
2013-10-4,65.8,53.1,43.0,28.2,8.3,-1.2,45,18,10,30.02,29.82,8,2,8,0.00
2013-10-5,71.2,56.3,44.2,20.1,7.1,-3.7,35,15,10,30.07,30.00,8,3,8,0.00
2013-10-6,77.4,57.1,39.7,32.9,16.2,-3.7,62,25,10,30.04,29.95,8,1,8,0.00
2013-10-7,74.5,57.4,44.2,41.5,22.3,-0.8,64,33,10,29.95,29.83,10,2,10,0.00
2013-10-8,66.2,55.8,44.6,49.7,21.8,-1.6,99,39,10,29.83,29.65,16,5,16,0.00
2013-10-9,44.8,39.1,33.6,44.5,38.9,33.4,99,99,99,29.65,29.48,25,8,25,0.98
2013-10-10,54.3,41.8,32.7,42.6,37.6,32.5,99,86,58,29.83,29.57,8,2,8,0.01
2013-10-11,66.9,49.3,36.5,45.9,38.7,30.3,99,72,26,29.88,29.82,7,1,8,0.00
2013-10-12,69.1,51.3,38.7,46.6,37.6,22.5,99,66,17,29.85,29.78,10,2,10,0.00
2013-10-13,62.1,51.3,41.0,42.5,35.3,21.9,97,57,23,29.88,29.75,13,3,13,0.00
2013-10-14,66.2,49.5,37.8,44.4,32.6,19.3,99,61,17,29.93,29.86,11,2,11,0.00
2013-10-15,67.6,51.9,37.2,42.4,24.5,8.6,92,43,11,29.91,29.85,7,2,7,0.00
2013-10-16,67.1,52.0,39.9,32.5,18.5,3.8,74,32,10,29.99,29.91,7,2,7,0.00
2013-10-17,71.8,51.6,37.2,39.0,25.6,6.5,81,48,10,29.94,29.85,6,1,6,0.00
2013-10-18,73.6,55.3,39.9,37.6,22.7,1.7,90,40,10,29.96,29.88,8,1,8,0.00
2013-10-19,79.3,54.6,38.8,38.8,26.3,6.3,75,45,10,29.97,29.92,5,1,5,0.00
2013-10-20,79.0,55.0,40.3,40.5,27.8,8.6,76,46,10,29.94,29.84,8,1,8,0.00
2013-10-21,79.0,55.9,40.5,41.2,26.4,8.9,76,43,10,29.93,29.86,6,1,6,0.00
2013-10-22,78.4,57.0,41.5,42.6,28.9,9.7,72,45,10,29.94,29.86,8,1,8,0.00
2013-10-23,78.3,55.8,42.1,45.5,28.6,9.4,77,45,10,29.87,29.80,7,1,7,0.00
2013-10-24,76.3,55.1,41.4,43.5,26.3,3.5,80,45,10,29.94,29.82,6,1,6,0.00
2013-10-25,79.7,56.3,41.9,42.4,28.1,6.8,78,45,10,30.01,29.94,8,1,8,0.00
2013-10-26,79.2,59.7,43.5,42.4,27.1,10.4,73,38,10,30.04,29.94,9,1,9,0.00
2013-10-27,73.8,55.2,43.5,46.9,32.0,9.4,99,52,10,29.94,29.64,14,4,14,0.01
2013-10-28,44.8,40.3,34.9,44.5,40.0,34.6,99,99,99,29.68,29.58,25,10,25,0.66
2013-10-29,46.0,39.3,35.2,39.9,37.5,35.0,99,94,72,29.78,29.67,14,3,14,0.04
2013-10-30,59.9,42.8,33.4,38.9,33.4,25.1,99,74,31,29.89,29.77,7,1,7,0.00
2013-10-31,64.2,46.4,32.5,40.0,25.5,5.0,99,55,10,29.96,29.88,8,1,8,0.00
2013-11-1,69.8,49.4,36.5,41.7,30.3,11.7,93,57,11,30.01,29.92,5,1,6,0.00
2013-11-2,70.2,51.2,36.3,41.4,28.1,6.0,94,52,10,29.93,29.77,9,2,9,0.00
2013-11-3,68.4,51.2,39.7,40.6,32.8,7.5,93,53,11,29.78,29.65,8,2,8,0.00
2013-11-4,55.4,46.0,41.0,44.8,33.9,16.6,94,65,32,29.79,29.62,8,2,8,0.00
2013-11-5,57.9,44.5,35.4,22.8,6.8,-6.2,47,24,10,30.01,29.78,11,3,11,0.00
2013-11-6,64.8,45.9,32.9,26.0,11.6,-4.9,60,31,10,30.08,30.00,8,2,10,0.00
2013-11-7,75.9,50.2,35.8,37.1,23.7,4.8,77,45,10,30.04,29.94,7,1,7,0.00
2013-11-8,73.6,54.9,39.4,38.1,14.8,-1.3,70,29,10,29.95,29.86,8,2,8,0.00
2013-11-9,72.0,54.2,40.6,34.3,15.3,-2.9,61,27,10,29.97,29.88,10,2,10,0.00
2013-11-10,74.8,51.5,40.3,34.7,22.2,1.9,68,40,10,29.99,29.94,8,1,8,0.00
2013-11-11,74.3,51.8,37.4,34.5,25.3,7.8,76,46,10,30.05,29.95,5,1,6,0.00
2013-11-12,69.1,52.3,40.8,42.5,32.1,8.8,77,53,10,30.09,30.03,4,0,4,0.00
2013-11-13,76.8,55.5,39.9,40.3,24.2,5.6,80,41,10,30.05,29.93,6,1,6,0.00
2013-11-14,78.3,56.0,39.6,38.0,23.9,6.4,76,37,10,29.96,29.67,12,2,12,0.00
2013-11-15,59.2,48.7,42.1,44.5,36.6,19.8,99,69,24,29.68,29.55,17,4,17,0.00
2013-11-16,50.2,42.1,39.4,43.3,40.8,38.1,99,96,71,29.73,29.57,15,5,15,0.00
2013-11-17,62.1,44.3,34.5,45.1,38.2,34.3,99,82,38,29.89,29.72,7,1,7,0.01
2013-11-18,60.6,46.1,35.1,45.1,40.5,34.8,99,83,43,29.93,29.85,9,2,9,0.00
2013-11-19,67.5,50.1,38.8,46.2,33.7,6.8,99,63,10,29.86,29.75,9,2,9,0.00
2013-11-20,59.9,45.8,41.4,45.8,42.2,35.1,99,89,51,29.76,29.70,11,3,11,0.00
2013-11-21,46.4,41.6,35.2,46.0,41.3,35.0,99,99,99,29.71,29.65,24,4,24,2.53
2013-11-22,37.6,33.4,30.9,37.3,33.2,30.7,99,99,99,29.75,29.67,8,0,8,0.04
2013-11-23,36.0,33.4,31.6,35.7,33.2,31.4,99,99,99,29.85,29.73,4,0,4,0.19
2013-11-24,49.6,37.8,32.7,43.3,36.0,32.5,99,94,67,29.97,29.84,5,1,5,0.11
2013-11-25,62.2,43.6,34.0,37.6,33.1,24.1,99,71,25,30.03,29.94,11,2,11,0.01
2013-11-26,64.2,45.3,34.0,38.6,33.7,28.3,95,68,27,30.02,29.91,6,1,6,0.00
2013-11-27,63.5,44.3,34.3,40.4,34.1,21.4,98,74,21,29.92,29.76,7,1,7,0.00
2013-11-28,57.4,41.6,33.4,40.0,32.2,27.1,99,74,32,29.89,29.74,9,2,9,0.00
2013-11-29,48.0,40.9,33.6,43.3,38.3,32.8,99,91,66,29.99,29.87,4,0,4,0.05
2013-11-30,60.4,43.4,35.1,46.4,36.3,32.0,99,80,37,30.03,29.95,6,1,6,0.00
2013-12-1,64.6,46.0,34.5,36.8,29.5,18.8,99,58,18,30.08,30.01,9,1,9,0.00
2013-12-2,69.8,46.5,34.0,40.6,29.7,13.2,93,60,12,30.02,29.77,6,1,6,0.00
2013-12-3,59.0,47.6,39.4,42.5,29.3,13.6,99,56,21,29.77,29.52,23,6,23,0.19
2013-12-4,46.9,33.5,25.0,39.5,22.9,9.6,99,71,24,29.68,29.53,14,2,14,0.02
2013-12-5,43.5,32.6,27.1,30.5,26.8,19.8,97,80,44,29.78,29.65,9,4,9,0.00
2013-12-6,41.5,33.1,28.2,32.5,29.1,25.3,99,86,56,29.83,29.76,14,5,14,0.00
2013-12-7,33.8,30.8,28.8,33.6,30.5,28.1,99,99,96,29.78,29.65,27,7,27,0.05
2013-12-8,39.2,27.4,19.6,36.2,24.2,11.8,99,88,69,29.87,29.74,7,1,8,0.05
2013-12-9,41.9,26.4,19.6,11.9,-2.2,-16.2,71,32,10,30.04,29.86,12,2,12,0.00
2013-12-10,48.4,29.0,17.1,19.4,4.5,-12.0,82,44,10,30.02,29.90,4,1,4,0.00
2013-12-11,55.6,34.5,22.1,27.2,14.6,-5.8,89,56,10,30.00,29.91,6,1,6,0.00
2013-12-12,57.9,37.4,27.7,27.6,20.4,-0.6,86,59,10,29.99,29.92,5,1,5,0.00
2013-12-13,60.8,42.7,29.5,30.0,11.1,-3.8,85,35,10,30.05,29.90,8,2,8,0.00
2013-12-14,58.1,43.8,35.2,16.2,9.9,-1.1,44,26,10,30.12,30.02,14,4,14,0.00
2013-12-15,61.9,43.9,34.7,29.5,15.9,2.9,79,38,10,30.11,30.04,8,2,8,0.00
2013-12-16,69.8,45.7,33.4,35.2,25.1,6.3,83,56,10,30.09,30.03,6,1,6,0.00
2013-12-17,75.6,48.0,35.4,39.3,30.0,11.4,86,59,10,30.07,29.93,4,1,5,0.00
2013-12-18,68.2,51.9,36.9,37.1,24.3,6.4,99,38,10,29.93,29.62,20,6,20,0.00
2013-12-19,38.3,34.7,32.4,37.7,34.5,32.1,99,99,95,29.62,29.46,23,6,23,0.18
2013-12-20,49.6,35.1,28.4,35.5,28.2,15.6,99,77,47,29.72,29.56,5,1,5,0.12
2013-12-21,61.3,39.7,27.7,37.8,28.1,19.9,99,69,25,29.86,29.67,5,1,5,0.00
2013-12-22,61.7,42.5,29.8,38.3,28.1,18.1,99,64,19,30.07,29.85,8,1,8,0.00
2013-12-23,59.2,43.7,33.1,31.8,27.9,25.0,91,56,29,30.13,30.05,8,2,8,0.00
2013-12-24,68.0,46.0,31.6,38.5,28.0,17.7,96,56,16,30.08,30.01,9,2,9,0.00
2013-12-25,61.3,46.1,37.9,25.2,15.1,-6.5,52,31,11,30.11,30.03,10,3,10,0.00
2013-12-26,63.1,48.2,38.8,10.5,-2.5,-10.8,26,12,10,30.05,29.99,11,3,11,0.00
2013-12-27,71.1,46.2,33.1,27.2,13.8,-11.6,65,35,10,30.05,29.94,8,1,8,0.00
2013-12-28,72.1,49.3,37.0,33.9,12.3,-8.7,67,31,10,29.94,29.80,7,1,7,0.00
2013-12-29,56.8,43.4,30.7,17.1,1.5,-12.0,56,19,10,30.01,29.88,11,3,11,0.00
2013-12-30,71.4,42.9,29.5,27.4,16.1,-2.9,70,42,10,30.06,29.99,5,1,5,0.00
2013-12-31,73.6,45.7,32.0,30.0,18.3,-3.6,69,43,10,30.03,29.94,8,1,8,0.00
2014-1-1,65.1,44.3,32.7,29.6,17.9,0.1,75,45,10,30.01,29.95,6,1,8,0.00
2014-1-2,71.4,44.4,31.8,34.1,25.1,8.1,84,56,10,29.99,29.91,5,1,5,0.00